Date,TemperatureHighF,TemperatureAvgF,TemperatureLowF,DewpointHighF,DewpointAvgF,DewpointLowF,HumidityHigh,HumidityAvg,HumidityLow,PressureMaxIn,PressureMinIn,WindSpeedMaxMPH,WindSpeedAvgMPH,GustSpeedMaxMPH,PrecipitationSumIn
2013-1-1,39.9,34.1,29.5,34.3,30.3,26.7,90,86,78,30.38,30.22,0,0,0,0.02
2013-1-2,44.2,35.5,29.8,35.3,29.1,25.0,89,78,60,30.23,30.05,0,0,0,0.00
2013-1-3,43.7,35.8,28.2,34.6,28.4,24.5,87,75,57,30.06,29.95,0,0,0,0.00
2013-1-4,48.2,43.1,38.1,45.0,40.0,33.8,92,89,84,30.19,30.02,7,0,7,0.00
2013-1-5,45.7,42.7,40.6,39.0,37.6,35.9,88,82,73,30.08,29.96,7,0,8,0.00
2013-1-6,46.0,42.8,40.1,41.2,39.4,37.1,90,88,82,30.05,29.84,8,1,8,0.00
2013-1-7,49.8,46.6,41.4,47.1,43.4,38.5,93,89,83,30.02,29.65,10,1,10,0.00
2013-1-8,47.1,46.3,45.0,42.2,41.7,41.0,86,84,83,30.02,29.90,7,0,7,0.00
2013-1-9,42.4,38.2,34.9,40.0,35.6,32.5,91,90,88,29.83,29.58,6,0,8,0.00
2013-1-10,39.0,36.2,31.6,36.6,33.7,29.1,91,91,90,29.95,29.77,0,0,0,0.00
2013-1-11,33.4,30.1,26.4,30.8,27.4,23.9,91,89,87,30.20,29.94,2,0,3,0.00
2013-1-12,35.8,29.8,25.0,30.5,25.4,21.9,89,84,72,30.32,30.18,0,0,0,0.00
2013-1-13,36.3,30.5,24.1,29.8,25.6,20.5,87,82,70,30.37,30.30,0,0,0,0.00
2013-1-14,37.2,35.3,33.1,32.8,31.0,28.6,86,84,82,30.46,30.34,0,0,0,0.00
2013-1-15,42.4,36.8,31.6,36.2,32.0,28.0,88,83,71,30.60,30.45,0,0,0,0.00
2013-1-16,41.5,34.2,28.2,34.8,29.8,24.8,88,84,77,30.58,30.40,0,0,0,0.00
2013-1-17,38.5,34.0,30.6,35.2,31.0,27.5,90,89,86,30.41,30.16,0,0,0,0.00
2013-1-18,35.8,33.3,31.6,33.3,30.9,28.8,93,91,89,30.22,30.12,0,0,0,0.00
2013-1-19,34.5,32.8,29.8,32.1,30.5,27.6,92,91,91,30.26,30.20,0,0,0,0.00
2013-1-20,37.9,33.5,31.1,35.5,31.1,29.0,92,91,89,30.27,30.13,0,0,0,0.00
2013-1-21,35.4,32.7,29.3,33.0,30.4,27.0,92,91,90,30.14,29.99,0,0,0,0.00
2013-1-22,38.8,34.2,29.7,36.1,31.6,27.0,92,90,89,30.00,29.73,0,0,0,0.00
2013-1-23,43.0,40.1,36.7,40.8,36.7,32.8,92,88,78,29.98,29.68,6,0,6,0.00
2013-1-24,46.8,43.3,41.4,40.6,39.4,38.0,91,86,74,30.07,29.89,8,0,9,0.00
2013-1-25,49.8,45.6,42.3,46.8,42.9,39.4,93,90,86,29.91,29.76,6,0,7,0.00
2013-1-26,44.6,42.7,40.6,42.2,40.0,37.6,92,90,88,29.88,29.70,6,0,6,0.00
2013-1-27,42.6,41.6,40.5,39.6,38.7,37.9,91,90,87,29.90,29.83,4,0,6,0.00
2013-1-28,43.2,41.7,39.6,41.0,39.4,37.4,92,91,90,29.93,29.83,3,0,4,0.00
2013-1-29,47.3,45.0,42.4,45.1,43.0,40.3,93,93,92,30.20,29.92,6,0,6,0.00
2013-1-30,49.6,47.4,45.0,47.5,45.5,43.1,94,93,92,30.26,30.19,4,0,6,0.00
2013-1-31,48.0,47.1,46.8,46.1,45.4,44.9,94,93,93,30.27,30.23,4,0,8,0.00
2013-2-4,51.3,48.7,46.2,44.8,43.7,42.9,89,83,76,30.03,29.72,0,0,0,0.00
2013-2-5,50.9,46.7,44.2,44.3,42.5,40.7,91,85,74,29.76,29.67,7,0,7,0.00
2013-2-6,50.4,46.0,43.7,41.5,40.6,39.8,87,82,70,29.89,29.62,2,0,7,0.00
2013-2-7,48.7,43.6,36.3,40.8,37.0,32.5,88,78,64,30.05,29.62,6,0,7,0.00
2013-2-8,45.9,39.5,32.5,39.3,34.7,29.7,90,83,71,30.18,30.04,0,0,0,0.00
2013-2-9,45.3,42.6,40.3,41.2,39.1,36.7,91,87,83,30.21,30.12,0,0,0,0.00
2013-2-10,45.7,40.1,33.8,40.7,36.5,31.4,92,87,76,30.26,30.19,0,0,0,0.00
2013-2-11,47.5,43.6,39.9,42.0,39.6,37.0,90,86,78,30.24,30.19,0,0,0,0.00
2013-2-12,49.6,46.7,43.5,45.8,43.5,40.0,91,88,85,30.28,30.15,7,0,7,0.00
2013-2-13,48.6,45.6,44.2,44.8,42.9,41.7,92,90,86,30.38,30.17,4,0,4,0.00
2013-2-14,49.1,46.2,43.5,45.0,43.2,41.0,91,89,84,30.45,30.37,6,0,6,0.00
2013-2-15,54.5,45.4,39.6,46.0,41.4,37.5,94,86,71,30.44,30.03,0,0,2,0.00
2013-2-16,52.2,44.3,39.6,44.7,41.0,36.9,92,88,71,30.06,29.96,8,0,8,0.02
2013-2-17,46.9,42.7,40.6,41.2,38.8,37.6,90,86,77,30.12,29.96,1,0,2,0.00
2013-2-18,46.9,42.3,38.5,39.9,37.2,35.2,89,82,73,29.96,29.59,0,0,3,0.00
2013-2-19,48.9,42.8,37.8,37.7,35.4,32.6,87,76,58,29.85,29.55,4,0,4,0.00
2013-2-20,46.0,41.1,36.1,39.9,36.8,32.3,88,85,75,29.89,29.84,0,0,2,0.00
2013-2-21,44.4,42.5,40.3,40.2,38.7,37.0,91,86,81,29.92,29.84,6,0,6,0.00
2013-2-22,46.2,43.1,40.6,41.7,38.6,34.6,89,84,77,29.89,29.51,13,0,13,0.00
2013-2-23,48.6,43.3,39.9,39.8,36.8,34.9,85,78,64,30.25,29.73,0,0,0,0.00
2013-2-24,47.7,44.5,41.2,38.2,36.8,35.6,82,75,68,30.25,29.79,4,0,12,0.00
2013-2-25,50.7,44.4,39.0,39.7,36.7,32.8,86,75,61,30.17,29.71,7,0,7,0.00
2013-2-26,48.6,43.1,36.7,37.5,34.3,32.0,84,72,58,30.22,30.05,2,0,2,0.00
2013-2-27,50.7,45.2,40.8,43.0,40.3,36.1,90,83,69,30.17,30.06,0,0,0,0.00
2013-2-28,51.8,46.0,42.6,49.6,43.6,40.2,93,91,90,30.19,30.03,9,1,9,0.00
2013-3-1,56.5,53.6,51.4,50.5,49.5,48.6,93,86,78,30.24,30.14,11,1,11,0.00
2013-3-2,57.4,50.0,40.3,49.0,44.7,37.0,89,82,70,30.14,29.92,8,1,8,0.00
2013-3-3,49.1,41.6,34.3,41.7,35.3,30.2,91,79,56,30.17,30.05,2,0,6,0.00
2013-3-4,52.3,41.4,30.7,36.4,30.1,26.8,89,67,42,30.17,29.76,0,0,0,0.00
2013-3-5,53.1,46.7,43.0,38.6,32.5,25.8,82,58,47,29.76,29.54,0,0,0,0.00
2013-3-6,45.0,42.5,40.6,41.6,38.8,37.0,89,87,82,29.73,29.38,4,0,4,0.00
2013-3-7,51.1,44.2,39.0,45.4,40.3,36.3,90,86,72,29.93,29.73,7,0,7,0.00
2013-3-8,50.7,41.9,34.0,42.6,36.6,31.2,92,82,67,30.09,29.91,0,0,0,0.00
2013-3-9,52.3,42.7,33.3,42.3,35.9,30.0,91,78,60,30.37,30.09,0,0,0,0.00
2013-3-10,50.2,43.9,38.1,41.8,38.4,33.7,86,81,69,30.37,30.29,0,0,0,0.00
2013-3-11,53.4,47.9,41.9,44.8,42.4,38.9,90,82,67,30.32,30.01,5,0,5,0.00
2013-3-12,55.0,52.1,47.8,49.2,47.5,44.5,89,84,74,30.01,29.91,17,1,17,0.00
2013-3-13,53.2,51.9,50.7,50.4,48.4,46.9,91,88,84,30.06,29.93,10,0,10,0.00
2013-3-14,52.9,50.7,48.6,49.7,47.2,44.8,92,88,79,30.00,29.86,6,0,7,0.00
2013-3-15,58.8,52.6,48.7,50.7,47.8,44.9,91,84,72,30.06,29.99,7,0,7,0.00
2013-3-16,50.9,46.9,39.2,45.2,41.5,34.4,86,82,71,29.99,29.73,7,0,7,0.00
2013-3-17,50.4,42.4,38.1,38.5,35.9,33.7,87,78,58,30.06,29.83,0,0,15,0.00
2013-3-18,52.0,44.1,39.4,44.6,36.7,33.0,89,76,59,30.11,29.95,4,0,9,0.00
2013-3-19,57.0,43.9,35.2,40.8,35.1,31.4,88,73,40,30.10,29.41,11,1,13,0.00
2013-3-20,54.1,46.6,36.7,47.5,40.9,31.5,93,81,68,29.86,29.20,10,1,14,0.00
2013-3-21,48.2,40.4,37.4,38.2,35.3,33.5,88,82,67,30.09,29.86,0,0,0,0.00
2013-3-22,44.4,39.0,34.3,36.4,32.4,28.3,90,78,59,30.25,30.07,4,0,4,0.00
2013-3-23,51.6,41.2,33.8,35.9,29.9,27.0,83,66,45,30.28,30.17,4,0,4,0.00
2013-3-24,55.0,43.2,32.4,36.9,30.2,26.8,84,62,41,30.18,29.98,9,0,9,0.00
2013-3-25,59.5,49.3,35.4,33.5,30.0,26.0,71,49,34,29.99,29.78,0,0,0,0.00
2013-3-26,59.5,51.4,45.0,43.4,37.4,33.5,71,59,42,29.88,29.80,0,0,0,0.00
2013-3-27,58.8,50.5,44.8,46.7,41.5,37.2,86,72,56,29.84,29.77,0,0,0,0.00
2013-3-28,61.3,52.3,44.4,50.3,44.6,40.7,89,76,58,30.01,29.84,0,0,0,0.00
2013-3-29,62.8,53.4,44.2,48.3,43.8,39.7,87,71,53,30.12,30.01,0,0,6,0.00
2013-3-30,64.9,53.5,40.8,45.8,42.3,36.9,87,68,44,30.14,29.93,8,0,8,0.00
2013-3-31,69.6,56.3,43.5,46.0,42.7,38.7,84,63,39,29.93,29.76,0,0,0,0.00
2013-4-1,59.9,53.2,47.8,49.4,45.7,41.6,86,76,65,30.02,29.82,0,0,0,0.00
2013-4-2,57.0,53.0,49.6,47.8,45.9,44.2,83,77,70,30.07,30.01,0,0,3,0.00
2013-4-3,63.1,54.6,46.2,48.9,45.0,42.3,89,71,51,30.05,29.79,0,0,0,0.00
2013-4-4,56.5,53.1,49.8,52.6,48.5,44.3,90,84,74,29.80,29.47,6,0,7,0.00
2013-4-5,58.1,53.0,49.1,50.9,48.3,45.4,92,85,73,29.72,29.56,9,0,9,0.00
2013-4-6,56.3,48.6,45.7,47.7,44.2,41.8,90,85,70,29.78,29.53,11,1,11,0.00
2013-4-7,47.1,44.6,39.9,43.5,41.5,37.7,93,89,85,29.73,29.30,5,0,7,0.00
2013-4-8,55.9,47.9,43.2,48.4,43.8,40.5,91,86,74,30.14,29.73,8,0,8,0.00
2013-4-9,55.2,50.1,43.5,45.7,43.1,40.1,89,77,64,30.23,30.04,5,0,6,0.00
2013-4-10,57.4,51.4,48.6,52.3,45.8,42.9,91,81,71,30.13,29.78,10,0,10,0.00
2013-4-11,52.9,48.0,44.4,43.6,40.2,35.9,89,75,59,30.18,30.05,6,0,6,0.00
2013-4-12,48.6,44.2,41.4,42.4,38.9,35.6,90,82,71,30.05,29.50,9,0,10,0.00
2013-4-13,49.3,42.7,36.9,42.8,38.5,33.9,90,85,77,29.85,29.59,7,0,7,0.00
2013-4-14,55.0,45.9,40.6,43.7,38.5,35.1,90,76,54,29.86,29.76,8,0,8,0.00
2013-4-15,54.3,46.1,40.3,42.1,38.7,35.9,87,76,54,30.04,29.79,9,0,9,0.00
2013-4-16,58.8,46.2,37.0,45.1,37.6,33.8,89,73,51,30.28,30.04,4,0,6,0.00
2013-4-17,62.4,50.0,37.9,44.9,38.0,33.2,83,65,41,30.35,30.27,4,0,9,0.00
2013-4-18,51.4,48.2,45.0,46.5,41.7,37.5,89,78,71,30.35,30.08,7,0,8,0.00
2013-4-19,54.7,51.1,49.1,51.6,48.3,46.1,91,90,88,30.07,29.91,9,0,9,0.00
2013-4-20,55.6,49.8,47.1,48.5,46.0,44.3,91,87,76,30.15,30.06,6,0,6,0.00
2013-4-21,52.5,47.6,42.4,46.6,42.8,37.6,91,84,63,30.25,30.10,6,0,6,0.00
2013-4-22,58.8,47.9,36.1,47.1,35.9,27.9,92,67,31,30.42,30.25,7,0,8,0.00
2013-4-23,61.2,48.5,37.9,41.6,35.9,31.7,82,64,36,30.31,30.12,4,0,4,0.00
2013-4-24,68.2,64.2,41.7,37.2,33.7,31.4,84,34,27,30.20,29.93,6,0,6,0.00
2013-4-25,72.1,58.7,43.7,45.5,40.1,34.3,74,52,35,29.99,29.89,3,0,3,0.00
2013-4-27,54.3,53.5,52.2,47.2,46.5,44.8,77,77,76,30.09,30.06,9,5,9,0.00
2013-4-28,59.4,51.8,46.6,50.7,44.5,40.7,89,77,60,30.09,29.79,5,0,6,0.00
2013-4-29,56.5,49.0,43.5,45.2,39.8,33.4,88,72,43,30.02,29.75,7,0,10,0.00
2013-4-30,57.4,46.2,38.5,42.6,34.4,29.6,86,66,40,30.33,30.03,4,0,4,0.00
2013-5-1,63.1,51.2,36.0,40.1,33.7,29.1,81,55,29,30.48,30.33,5,0,5,0.00
2013-5-2,70.0,55.4,43.5,44.9,38.7,22.5,77,56,29,30.45,30.25,8,0,8,0.00
2013-5-3,68.2,57.6,44.8,48.1,43.0,38.2,80,60,45,30.28,30.10,10,1,10,0.00
2013-5-4,77.5,59.6,47.8,50.6,45.3,39.7,81,61,29,30.11,29.86,4,0,5,0.00
2013-5-5,82.4,73.1,53.4,50.2,46.6,33.3,74,41,18,29.86,29.62,5,0,6,0.00
2013-5-6,88.3,70.7,52.7,52.0,46.2,42.6,70,45,25,29.70,29.59,3,0,6,0.00
2013-5-7,69.6,57.9,53.2,53.2,48.0,44.8,80,70,55,29.83,29.67,3,0,6,0.00
2013-5-20,68.4,60.0,52.7,48.6,46.5,45.3,76,62,46,29.93,29.75,0,0,0,0.00
2013-5-21,57.4,51.4,47.7,49.3,45.7,43.5,87,81,72,29.75,29.61,0,0,0,0.00
2013-5-22,54.0,49.1,45.0,48.2,44.5,41.3,88,84,76,29.78,29.69,0,0,0,0.00
2013-5-23,61.9,51.6,46.8,49.6,45.1,43.1,89,79,56,29.87,29.76,4,0,4,0.00
2013-5-24,63.3,54.8,46.9,50.5,46.1,43.3,89,74,53,29.91,29.81,5,0,6,0.00
2013-5-25,66.4,57.1,50.7,49.3,46.6,44.7,82,69,48,29.90,29.82,5,0,5,0.00
2013-5-26,65.7,57.6,52.0,54.7,50.1,46.4,87,76,63,29.84,29.78,5,0,5,0.00
2013-5-27,60.6,56.4,51.8,53.8,51.2,47.6,89,83,76,29.83,29.55,7,0,7,0.00
2013-5-28,63.7,57.2,52.5,51.9,49.9,47.4,88,77,62,29.73,29.61,7,0,8,0.00
2013-5-29,61.0,54.1,51.1,52.9,49.1,47.0,88,83,69,29.82,29.51,3,0,4,0.00
2013-5-30,68.4,56.9,49.5,51.2,47.0,44.4,85,71,51,30.12,29.81,6,0,8,0.00
2013-5-31,68.7,58.8,52.3,50.9,46.3,42.6,81,65,44,30.22,30.12,4,0,6,0.00
2013-6-1,74.8,60.9,52.2,52.5,47.3,43.4,79,63,39,30.12,29.91,0,0,0,0.00
2013-6-2,70.5,61.3,53.8,51.7,48.9,46.0,85,65,45,29.95,29.90,0,0,0,0.00
2013-6-3,73.9,62.9,52.0,54.7,50.6,46.2,84,66,47,29.99,29.91,0,0,0,0.00
2013-6-4,79.5,66.4,50.7,56.7,50.8,45.5,84,60,41,29.99,29.88,0,0,0,0.00
2013-6-5,79.0,66.6,54.7,58.3,51.7,43.6,72,59,47,29.95,29.89,0,0,0,0.00
2013-6-6,81.9,67.1,53.2,58.7,50.2,41.0,83,57,35,29.91,29.87,0,0,0,0.00
2013-6-7,68.5,61.9,55.6,54.6,47.0,41.6,73,59,46,30.02,29.87,0,0,0,0.00
2013-6-8,69.6,59.5,52.9,52.9,47.9,45.3,76,66,53,30.06,29.96,0,0,0,0.00
2013-6-9,68.7,56.5,51.4,49.9,46.4,43.4,81,70,47,29.97,29.87,0,0,0,0.00
2013-6-10,70.5,56.3,48.9,50.4,45.6,41.8,79,68,46,29.89,29.72,0,0,0,0.00
2013-6-11,64.8,59.6,53.4,50.8,46.5,44.2,72,62,53,29.96,29.80,0,0,0,0.00
2013-6-12,73.6,59.6,53.4,50.9,46.6,44.2,77,64,40,30.01,29.96,1,0,1,0.00
2013-6-13,69.4,59.6,53.2,54.3,48.5,43.8,86,68,43,30.10,30.00,0,0,0,0.00
2013-6-14,67.5,59.4,54.5,50.4,47.8,45.8,74,66,52,30.11,29.92,0,0,0,0.00
2013-6-15,76.6,64.1,49.8,54.8,50.9,45.1,86,64,44,29.92,29.77,0,0,0,0.00
2013-6-16,75.9,64.1,55.9,57.4,53.5,49.1,80,69,51,29.96,29.85,0,0,0,0.00
2013-6-17,78.6,71.0,58.8,56.0,51.8,47.6,77,52,38,29.91,29.74,0,0,0,0.00
2013-6-18,74.8,65.1,56.3,54.3,49.6,43.5,82,60,36,29.85,29.73,0,0,0,0.00
2013-6-19,65.8,60.1,56.1,54.2,50.4,47.2,76,71,62,29.85,29.76,0,0,0,0.00
2013-6-20,59.9,55.3,53.8,54.8,51.1,48.7,90,86,73,29.98,29.80,0,0,0,0.00
2013-6-21,66.9,59.4,52.9,56.3,52.5,50.0,91,79,61,30.03,29.97,0,0,0,0.00
2013-6-22,79.5,65.3,51.6,58.2,52.2,47.8,89,66,40,29.99,29.72,0,0,0,0.00
2013-6-23,70.7,65.5,60.3,61.6,56.8,52.6,81,74,66,29.68,29.52,0,0,0,0.00
2013-6-24,65.5,62.8,60.6,54.6,53.2,52.4,77,71,67,29.55,29.51,0,0,0,0.00
2013-6-25,74.5,63.3,56.5,61.3,55.4,52.7,90,77,49,29.72,29.51,0,0,0,0.00
2013-6-26,73.9,64.0,56.8,62.2,56.9,53.3,91,79,60,29.95,29.70,0,0,0,0.00
2013-6-27,71.2,65.1,59.7,63.3,59.4,55.3,89,82,71,30.07,29.91,0,0,0,0.00
2013-6-28,89.4,74.8,61.0,68.3,62.3,57.9,90,68,43,30.07,29.93,0,0,0,0.00
2013-6-29,85.6,74.5,64.9,64.0,60.6,55.4,81,63,45,29.99,29.88,0,0,0,0.00
2013-6-30,91.9,77.5,61.3,66.6,61.2,54.9,81,59,36,29.91,29.74,0,0,0,0.00
2013-7-1,88.3,77.2,65.3,65.2,60.1,55.8,72,57,43,29.93,29.80,0,0,0,0.00
2013-7-2,82.9,71.3,61.3,62.5,55.4,49.7,77,59,37,30.00,29.93,0,0,0,0.00
2013-7-3,78.6,71.8,58.8,55.5,51.5,44.8,64,49,39,30.02,29.93,0,0,0,0.00
2013-7-4,72.3,63.4,57.0,56.0,51.6,47.4,77,66,53,29.99,29.89,0,0,0,0.00
2013-7-5,74.8,65.0,56.8,56.4,53.4,50.0,79,67,51,29.89,29.80,0,0,0,0.00
2013-7-6,79.9,68.0,55.8,58.9,54.3,50.6,84,63,45,29.83,29.72,0,0,0,0.00
2013-7-7,77.4,67.9,57.6,60.2,55.9,50.4,80,66,52,29.81,29.73,0,0,0,0.00
2013-7-8,79.5,68.3,58.6,59.9,55.6,52.2,80,65,46,29.96,29.80,0,0,0,0.00
2013-7-9,86.2,72.2,58.6,62.1,55.6,50.0,80,58,39,29.97,29.89,0,0,0,0.00
2013-7-10,73.6,65.6,57.6,57.0,53.0,48.2,74,64,55,29.93,29.81,0,0,0,0.00
2013-7-11,72.1,61.0,55.9,54.2,48.4,45.3,76,64,49,29.94,29.85,0,0,0,0.00
2013-7-12,69.8,60.3,52.2,53.9,49.2,44.5,77,67,54,29.97,29.86,0,0,0,0.00
2013-7-13,77.0,64.5,49.8,53.8,48.3,43.2,80,58,36,30.06,29.97,0,0,0,0.00
2013-7-14,84.2,67.9,51.6,55.6,48.4,44.0,79,53,31,30.00,29.86,0,0,0,0.00
2013-7-15,79.0,68.1,54.3,55.7,49.6,46.1,75,54,37,29.91,29.76,0,0,0,0.00
2013-7-16,86.4,72.9,58.5,55.2,51.1,45.6,68,48,29,29.78,29.69,0,0,0,0.00
2013-7-17,72.1,67.0,61.2,57.3,55.4,52.8,77,67,54,30.08,29.77,1,0,1,0.00
2013-7-18,77.7,66.5,58.8,59.7,55.3,52.0,80,68,52,30.11,30.01,0,0,0,0.00
2013-7-19,80.2,66.4,54.3,62.0,55.8,49.5,87,70,51,30.06,29.92,0,0,0,0.00
2013-7-30,77.0,73.0,65.1,58.2,56.3,54.7,69,56,51,29.99,29.94,0,0,0,0.00
2013-7-31,71.2,63.6,58.8,60.0,56.7,52.9,86,78,66,30.00,29.87,0,0,0,0.00
2013-8-1,66.7,62.1,57.4,57.7,55.1,52.9,86,78,68,29.93,29.89,0,0,0,0.00
2013-8-2,61.7,60.0,58.1,58.1,55.8,53.2,91,86,76,30.01,29.93,0,0,0,0.00
2013-8-3,73.6,65.0,59.4,61.4,58.4,55.1,93,80,63,30.01,29.93,0,0,0,0.00
2013-8-4,79.7,68.8,56.1,62.7,57.8,52.3,89,70,52,29.93,29.82,0,0,0,0.00
2013-8-5,84.4,72.0,57.7,62.0,56.7,52.9,85,61,38,29.89,29.80,0,0,0,0.00
2013-8-6,86.5,72.2,55.9,61.6,53.6,48.6,78,55,34,29.88,29.79,0,0,0,0.00
2013-8-7,85.8,72.1,57.4,61.2,54.4,50.4,79,56,37,29.89,29.82,0,0,0,0.00
2013-8-8,82.2,70.2,60.4,61.4,56.1,51.0,81,62,48,29.91,29.82,0,0,0,0.00
2013-8-9,84.7,71.4,57.7,59.9,55.2,49.6,76,58,43,29.83,29.71,0,0,0,0.00
2013-8-10,77.5,69.6,61.7,63.5,60.0,56.6,87,72,59,29.88,29.75,0,0,0,0.00
2013-8-11,77.5,67.9,59.7,59.1,56.0,53.7,83,67,48,29.93,29.86,0,0,0,0.00
2013-8-12,79.3,67.5,58.6,59.2,55.2,52.0,81,66,48,29.94,29.87,0,0,0,0.00
2013-8-13,82.4,69.5,57.7,60.1,55.0,52.1,83,62,40,29.98,29.79,0,0,0,0.00
2013-8-14,81.0,68.7,58.8,60.8,57.0,52.0,82,68,45,29.84,29.78,0,0,0,0.00
2013-8-15,70.5,67.2,64.2,64.8,62.6,60.2,90,85,79,29.87,29.78,0,0,0,0.00
2013-8-16,82.9,71.5,63.1,67.6,60.7,53.2,93,71,44,29.88,29.82,0,0,0,0.00
2013-8-17,78.1,70.0,63.1,61.6,57.4,54.2,73,65,56,29.95,29.87,0,0,0,0.00
2013-8-18,79.7,68.7,62.1,60.3,55.8,50.9,78,64,49,30.00,29.95,0,0,0,0.00
2013-8-19,79.5,68.0,60.6,60.1,54.3,49.7,74,62,49,29.99,29.94,0,0,0,0.00
2013-8-20,76.3,66.4,57.9,56.9,51.7,48.1,76,60,45,30.05,29.93,0,0,0,0.00
2013-8-21,78.6,67.3,53.4,55.7,51.4,46.8,80,59,42,29.97,29.81,0,0,0,0.00
2013-8-22,86.4,72.7,56.8,58.7,54.1,48.7,76,54,37,29.82,29.68,0,0,0,0.00
2013-8-23,73.6,67.4,62.8,58.0,55.5,53.3,76,66,56,29.77,29.68,0,0,0,0.00
2013-8-24,75.7,66.9,60.6,59.3,55.0,51.7,82,67,47,29.79,29.73,0,0,0,0.00
2013-8-25,75.9,64.7,53.8,57.7,54.0,48.9,84,69,50,29.80,29.73,0,0,0,0.00
2013-8-26,76.6,66.3,60.1,60.6,57.0,53.3,84,73,49,29.83,29.72,0,0,0,0.00
2013-8-27,80.2,69.7,62.2,62.8,58.4,55.4,85,69,52,29.83,29.66,0,0,0,0.00
2013-8-28,78.4,69.4,60.6,66.5,60.0,55.8,90,73,57,29.77,29.68,0,0,0,0.00
2013-8-29,72.1,67.2,64.0,65.9,62.6,60.2,90,85,73,29.89,29.72,4,0,4,0.00
2013-8-30,79.3,69.2,61.5,62.5,57.5,52.4,89,68,47,30.04,29.90,0,0,3,0.00
2013-8-31,78.6,67.4,55.2,59.4,55.9,51.0,89,68,49,29.96,29.70,0,0,0,0.00
2013-9-1,78.6,69.5,58.8,61.9,57.5,54.3,88,67,51,29.75,29.65,0,0,0,0.00
2013-9-2,83.8,71.1,60.4,61.9,57.1,53.9,82,63,46,29.82,29.73,0,0,0,0.00
2013-9-3,70.0,65.0,61.3,64.0,59.7,55.1,90,83,70,29.89,29.80,0,0,0,0.00
2013-9-4,68.2,63.0,58.8,61.5,58.7,55.6,91,86,78,29.92,29.85,0,0,0,0.00
2013-9-5,68.7,62.9,59.5,63.0,58.7,56.7,93,86,77,29.92,29.78,0,0,0,0.00
2013-9-6,69.1,63.4,60.6,64.0,60.1,58.0,93,89,80,29.98,29.80,0,0,0,0.00
2013-9-7,71.4,64.9,61.7,62.7,59.7,57.3,91,84,70,29.98,29.88,0,0,0,0.00
2013-9-8,76.5,65.6,57.7,65.5,58.9,54.9,93,80,62,29.98,29.89,0,0,0,0.00
2013-9-9,75.7,65.4,57.6,64.4,58.6,55.0,92,80,63,29.93,29.84,0,0,0,0.00
2013-9-10,75.7,65.9,56.8,63.5,58.8,54.5,93,79,64,29.86,29.75,0,0,0,0.00
2013-9-11,89.4,74.1,57.9,64.7,59.1,54.1,90,63,36,29.80,29.74,0,0,0,0.00
2013-9-12,77.5,69.2,61.0,64.2,59.6,56.0,86,72,58,29.86,29.76,0,0,0,0.00
2013-9-13,66.9,63.7,60.4,60.8,58.8,55.6,89,84,79,29.83,29.73,0,0,0,0.00
2013-9-14,68.5,64.3,61.3,61.8,59.5,57.8,89,85,77,29.73,29.58,0,0,0,0.00
2013-9-15,65.3,62.0,58.8,62.2,59.2,56.5,92,90,87,29.67,29.55,0,0,0,0.00
2013-9-16,68.7,61.8,58.1,60.4,57.2,53.0,91,85,74,29.78,29.66,0,0,0,0.00
2013-9-17,63.1,59.0,55.9,54.1,52.9,51.6,86,80,70,29.79,29.72,0,0,0,0.00
2013-9-18,71.8,60.1,52.9,57.1,51.7,48.0,91,75,55,29.93,29.79,0,0,0,0.00
2013-9-19,75.4,62.6,48.0,54.6,49.7,44.3,89,65,45,29.91,29.60,0,0,0,0.00
2013-9-20,76.3,63.6,54.0,57.4,51.6,46.7,83,66,49,29.61,29.43,0,0,0,0.00
2013-9-21,70.0,62.2,57.9,57.6,53.9,51.4,85,75,62,29.56,29.48,0,0,0,0.00
2013-9-22,60.6,58.5,56.3,53.2,51.6,48.7,84,78,65,29.55,29.41,3,0,6,0.00
2013-10-3,57.0,51.6,46.2,49.4,47.1,42.8,92,85,73,30.34,30.05,0,0,0,0.00
2013-10-4,61.5,51.5,40.8,49.5,44.5,37.8,90,78,61,30.42,30.23,0,0,0,0.00
2013-10-5,67.1,55.9,45.0,50.5,46.1,41.6,88,71,48,30.23,30.00,0,0,0,0.00
2013-10-6,70.3,58.0,45.1,53.3,47.1,41.4,88,69,44,29.99,29.73,0,0,0,0.00
2013-10-7,59.9,55.0,52.5,50.6,48.7,46.4,87,80,66,29.85,29.73,2,0,2,0.00
2013-10-8,53.8,51.3,44.6,48.7,46.0,40.7,86,82,73,29.93,29.81,0,0,0,0.00
2013-10-9,58.8,53.2,40.1,48.3,45.4,37.1,89,75,66,29.99,29.79,0,0,0,0.00
2013-10-10,58.6,52.5,46.9,50.2,46.7,42.9,88,81,69,29.93,29.77,0,0,0,0.00
2013-10-11,55.2,51.9,49.1,50.4,48.1,45.4,90,87,81,30.04,29.92,0,0,0,0.00
2013-10-12,56.1,51.0,45.3,50.1,46.6,42.0,91,85,74,30.08,29.91,0,0,0,0.00
2013-10-13,53.8,48.1,42.4,47.5,44.1,39.4,91,86,78,30.28,30.08,0,0,0,0.00
2013-10-14,56.5,47.2,40.1,48.8,42.4,37.1,91,84,69,30.37,30.24,0,0,0,0.00
2013-10-15,59.9,49.9,41.0,50.9,44.7,37.7,89,83,70,30.33,30.04,0,0,0,0.00
2013-10-16,53.6,50.3,45.9,48.7,46.5,42.5,92,87,82,30.11,30.00,0,0,0,0.00
2013-10-17,54.3,49.8,45.3,48.9,46.1,42.0,90,87,82,30.15,30.07,0,0,0,0.00
2013-10-18,57.9,48.3,43.0,51.6,44.7,40.3,92,87,78,30.20,30.00,0,0,0,0.00
2013-10-19,51.6,47.0,43.9,48.1,44.4,41.4,92,90,87,30.10,30.00,0,0,0,0.00
2013-10-20,49.8,47.8,46.2,46.8,45.2,44.1,92,91,88,30.09,30.01,0,0,0,0.00
2013-10-21,51.6,48.2,46.0,48.1,45.8,43.9,93,91,88,30.10,29.96,0,0,0,0.00
2013-10-22,54.7,48.8,45.7,50.7,46.3,43.5,94,91,86,30.06,29.88,0,0,0,0.00
2013-10-23,56.5,48.7,44.2,52.3,46.1,42.4,93,91,85,29.97,29.82,0,0,0,0.00
2013-10-24,53.2,48.2,44.2,50.1,45.8,42.4,93,91,88,29.98,29.86,0,0,0,0.00
2013-10-25,52.5,49.5,45.1,48.7,46.6,42.4,92,90,86,30.19,29.98,0,0,0,0.00
2013-10-26,52.2,49.9,46.4,47.2,45.9,44.0,92,86,79,30.28,30.05,0,0,0,0.00
2013-10-27,55.2,49.2,43.9,48.7,45.4,41.2,92,87,74,30.07,29.73,0,0,0,0.00
2013-10-28,56.8,48.0,41.4,45.9,39.6,35.1,92,74,51,29.86,29.72,0,0,0,0.00
2013-10-29,53.4,44.6,36.0,42.4,37.0,32.1,87,75,58,29.93,29.78,0,0,0,0.00
2013-10-30,55.8,47.7,39.4,46.2,40.7,34.4,85,77,69,30.02,29.88,2,0,6,0.00
2013-10-31,54.7,51.4,49.1,49.9,46.6,42.7,90,84,74,30.14,29.95,6,0,6,0.00
2013-11-1,60.3,54.3,49.1,52.5,49.7,46.3,91,85,73,30.23,29.68,0,0,0,0.00
2013-11-2,54.0,52.4,51.4,50.1,49.4,48.8,91,90,87,29.68,29.29,10,1,19,0.00
2013-11-3,51.6,45.0,40.6,43.6,40.3,37.0,90,84,72,29.96,29.88,0,0,0,0.00
2013-11-4,49.1,43.1,35.2,41.1,37.1,32.2,89,80,65,30.07,29.92,0,0,0,0.00
2013-11-5,53.4,47.1,43.5,48.5,43.6,39.0,91,88,81,30.12,29.85,0,0,0,0.00
2013-11-6,51.1,48.5,43.7,46.7,44.9,41.5,92,87,84,30.19,29.87,0,0,0,0.00
2013-11-7,50.0,48.9,48.0,47.7,46.2,45.0,92,90,86,29.87,29.54,14,1,17,0.00
2013-11-8,53.8,48.9,44.8,47.1,44.4,41.3,91,84,76,30.02,29.80,5,0,5,0.00
2013-11-9,52.0,46.0,39.0,45.4,42.1,36.3,92,86,77,30.08,29.92,0,0,2,0.00
2013-11-10,48.9,46.7,44.8,45.3,43.9,42.4,93,90,87,30.04,29.94,0,0,0,0.00
2013-11-11,58.1,50.1,43.0,49.1,44.3,40.3,92,81,62,30.09,29.84,2,0,2,0.00
2013-11-12,56.8,52.0,47.3,53.3,48.0,41.3,92,86,76,30.24,29.87,7,0,7,0.00
2013-11-13,55.6,52.7,49.3,49.6,48.2,45.2,89,85,78,30.32,30.18,0,0,0,0.00
2013-11-14,50.9,48.2,45.5,47.4,45.2,42.7,91,89,86,30.19,29.91,0,0,0,0.00
2013-11-15,46.6,45.4,44.1,44.4,42.5,41.0,92,90,86,29.93,29.12,14,0,14,0.00
2013-11-16,48.6,44.7,41.2,44.2,40.0,37.8,92,84,74,29.59,29.13,5,0,5,0.00
2013-11-17,51.4,46.5,43.9,46.2,41.5,38.5,84,82,79,29.72,29.59,4,0,11,0.00
2013-11-18,51.3,50.5,49.8,49.1,48.2,47.5,93,92,91,29.58,29.36,7,1,10,0.00
2013-11-19,52.7,44.2,37.9,50.7,38.3,25.1,93,80,55,29.91,29.35,8,0,8,0.00
2013-11-20,41.2,36.3,31.6,32.7,27.5,25.1,83,71,56,30.40,29.91,0,0,0,0.00
2013-11-21,41.4,33.7,28.0,29.5,25.9,23.4,85,73,55,30.61,30.40,0,0,0,0.00
2013-11-22,45.3,36.2,29.1,30.7,27.8,24.0,83,72,53,30.56,30.33,0,0,0,0.00
2013-11-23,50.2,39.5,31.1,33.8,30.7,26.2,83,72,49,30.40,30.05,0,0,0,0.00
2013-11-24,49.6,40.4,32.9,39.4,34.4,29.0,86,79,63,30.13,30.01,0,0,0,0.00
2013-11-25,51.4,41.6,34.0,40.8,35.4,30.4,88,79,63,30.25,30.12,0,0,0,0.00
2013-11-26,50.9,42.6,34.7,41.8,36.7,30.8,89,80,65,30.21,29.95,0,0,0,0.00
2013-11-27,54.0,46.0,38.8,43.0,38.6,34.4,85,76,65,30.00,29.80,0,0,0,0.00
2013-11-28,49.1,41.0,35.4,41.9,36.6,32.1,88,85,72,30.04,29.87,0,0,0,0.00
2013-11-29,47.8,44.7,39.4,44.5,41.1,36.1,89,87,83,30.19,30.04,0,0,0,0.00
2013-11-30,50.7,48.6,46.2,46.5,44.1,42.6,90,85,77,30.28,29.94,6,0,6,0.00
2013-12-1,52.9,50.4,41.7,50.3,46.8,38.7,93,88,80,29.94,29.57,6,0,14,0.00
2013-12-2,44.6,40.0,37.6,38.7,35.7,33.9,90,85,71,29.90,29.63,0,0,0,0.00
2013-12-3,39.0,34.3,29.3,35.7,26.9,23.6,88,75,59,30.18,29.89,0,0,0,0.00
2013-12-4,37.0,30.4,25.2,29.6,24.1,21.5,87,78,63,30.31,30.15,0,0,0,0.00
2013-12-5,34.3,29.2,24.6,24.1,21.2,17.7,83,72,60,30.22,30.05,0,0,0,0.00
2013-12-6,31.6,26.7,22.3,17.8,12.7,7.6,69,56,44,30.17,29.99,0,0,0,0.00
2013-12-7,28.6,24.0,18.3,11.0,7.8,4.9,63,50,38,30.36,30.08,0,0,0,0.00
2013-12-8,32.4,26.1,19.6,17.5,14.4,9.1,68,61,50,30.47,30.30,0,0,0,0.00
2013-12-9,34.0,29.7,22.3,23.4,19.2,14.2,72,65,58,30.54,30.37,0,0,0,0.00
2013-12-10,39.6,36.1,33.1,32.1,28.7,23.2,79,74,66,30.46,30.30,0,0,0,0.00
2013-12-11,41.4,35.1,29.8,33.4,29.5,25.6,86,80,71,30.38,30.02,0,0,0,0.00
2013-12-12,43.0,37.8,32.5,39.6,34.0,29.0,90,86,74,30.09,29.90,0,0,3,0.00
2013-12-13,47.1,45.2,42.1,45.0,42.8,39.4,92,91,90,30.31,29.98,3,0,5,0.00
2013-12-14,48.0,46.0,42.6,44.0,43.0,40.2,92,89,84,30.41,30.21,6,0,7,0.00
2013-12-15,49.8,48.3,46.9,47.4,45.5,43.2,92,90,84,30.35,30.19,0,0,2,0.00
2013-12-16,47.5,43.8,39.7,45.3,41.5,37.6,93,91,90,30.45,30.14,2,0,2,0.00
2013-12-17,44.4,41.5,39.0,42.3,39.2,36.9,93,92,91,30.14,29.96,6,0,6,0.00
2013-12-18,44.2,41.1,33.3,41.9,37.4,29.8,92,87,74,30.08,29.87,0,0,0,0.00
2013-12-19,38.5,33.8,29.1,31.3,28.9,25.4,90,82,71,30.26,29.99,0,0,0,0.00
2013-12-20,41.4,36.1,32.5,39.2,32.9,28.5,92,88,80,30.06,29.53,5,0,6,0.00
2013-12-21,45.1,42.0,38.8,43.0,39.8,37.0,93,92,91,30.02,29.67,0,0,0,0.00
2013-12-22,49.1,47.1,45.0,47.4,45.2,42.8,94,93,92,30.17,30.01,7,0,8,0.00
2013-12-23,51.6,47.9,43.5,48.4,45.5,40.8,94,91,88,30.41,29.98,11,1,19,0.00
2013-12-24,46.0,40.8,34.9,42.7,37.7,32.5,92,89,81,30.57,30.40,0,0,0,0.00
2013-12-25,39.0,35.0,32.5,36.3,32.4,30.2,92,91,89,30.49,30.27,0,0,0,0.00
2013-12-26,43.3,37.6,33.8,40.0,35.0,31.4,92,90,87,30.37,30.06,0,0,0,0.00
2013-12-27,44.6,39.6,33.6,42.4,37.3,31.2,93,92,90,30.25,29.97,5,0,5,0.00
2013-12-28,47.1,43.4,38.5,45.0,41.0,35.5,93,91,87,30.45,30.24,0,0,0,0.00
2013-12-29,43.2,40.6,37.6,40.5,38.2,35.4,92,91,89,30.42,30.18,0,0,0,0.00
2013-12-30,43.9,41.2,37.9,41.7,38.9,35.5,93,92,91,30.25,29.99,7,0,7,0.00
2013-12-31,46.8,44.0,39.7,44.3,41.5,37.6,92,91,90,30.26,30.05,1,0,1,0.00
2014-1-1,45.0,40.9,35.2,41.8,38.3,33.1,92,91,88,30.37,30.11,2,0,2,0.00
2014-1-2,48.4,44.8,42.1,44.2,42.1,39.6,93,90,82,30.19,29.74,3,0,3,0.00